Weather Roundup
Issued by NWS Springfield, MO

Home | Current Version | Previous Version | Text Only | Print | Product List | Glossary On
Versions: 1 2 3 4 5 6 7 8 9 10 11 12 13 14 15 16 17 18 19 20 21 22 23 24 25 26 27 28 29 30 31 32 33 34 35 36 37 38 39 40 41 42 43 44 45 46 47 48 49 50
863
NZUS99 KSGF 100307
HRRSGF

HOURLY WEATHER
NATIONAL WEATHER SERVICE SPRINGFIELD MO
900 PM CST TUE FEB 09 2016

......SGF CWA......

CITY           SKY/WX    TMP DP  RH WIND       PRES   REMARKS
SPRINGFIELD    CLEAR     25   3  38 NW18G25   30.19R WCI  11
JOPLIN         PTCLDY    26   6  42 NW12      30.29R WCI  16
WEST PLAINS    CLEAR     25   7  46 NW10G22   30.13R WCI  15
ROLLA          CLEAR     20   8  60 W12       30.11S WCI   8
OSAGE BEACH    CLEAR     23   3  42 W9G17     30.18S WCI  13
BRANSON        CLEAR     27   3  36 NW13G28   30.19R WCI  16

......SURROUNDING SGF CWA......

CITY           SKY/WX    TMP DP  RH WIND       PRES   REMARKS
CHANUTE        CLEAR     25   8  48 NW8       30.31S WCI  16
PARSONS        CLEAR     25   8  48 N8        30.33R WCI  16
COFFEYVILLE    CLEAR     27   8  44 N10       30.34R WCI  17
EMPORIA        CLEAR     20   9  62 W3        30.30S
GROVE OK       CLEAR     32  10  40 NW12G23   30.31R WCI  23
ROGERS AR      CLEAR     27   9  46 NW14G23   30.23R WCI  16
SILOAM SPRINGS CLEAR     28   7  40 N15       30.26R WCI  17
HARRISON AR    CLEAR     27   6  41 NW13      30.18R WCI  16
NEAR YELLVILLE CLEAR    N/A N/A N/A NW10G21   30.16S

......KANSAS AND MISSOURI......

CITY           SKY/WX    TMP DP  RH WIND       PRES   REMARKS
KANSAS CTY INT CLEAR     22   9  57 NW12      30.25F WCI  10
DOWNTOWN KC    CLEAR     25   8  48 NW9       30.27S WCI  15
COLUMBIA       CLEAR     20   8  60 NW12      30.16R WCI   8
SEDALIA        CLEAR     23   6  48 NW16G28   30.21R WCI  10
ST JOSEPH      CLEAR     19   9  65 NW8       30.27F WCI   9
ST LOUIS       PTCLDY    23  10  57 NW15G24   30.10S WCI  10
SPIRIT OF STL  CLOUDY    24   8  50 NW20G28   30.12R WCI  10
KIRKSVILLE     CLEAR     16   4  59 NW15      30.17R WCI   1
WICHITA        CLOUDY    32  13  45 N10       30.30F WCI  24
TOPEKA         CLEAR     25   9  50 W6        30.29F WCI  18
OLATHE         CLEAR     22   6  50 NW9       30.26S WCI  12

......TENNESSEE......

CITY           SKY/WX    TMP DP  RH WIND       PRES   REMARKS
MEMPHIS        CLEAR     29  13  51 NW5       30.15S WCI  24
NASHVILLE      FLURRIES  23  14  68 NW10G22   30.10R WCI  12

......ARKANSAS.......

CITY           SKY/WX    TMP DP  RH WIND       PRES   REMARKS
FAYETTEVILLE   CLEAR     28   9  44 NW13      30.23R WCI  17
FT SMITH       CLEAR     39   9  29 NW16      30.27R WCI  30
LITTLE ROCK    CLEAR     39   9  29 NW9       30.20R WCI  33

......OKLAHOMA.......

CITY           SKY/WX    TMP DP  RH WIND       PRES   REMARKS
TULSA          MOCLDY    35  17  47 N14       30.32R WCI  26
PONCA CITY     CLOUDY    34  18  52 N9        30.32S WCI  27
MCALESTER      PTCLDY    40  19  43 NW9       30.30R WCI  34
OKLAHOMA CITY  PTCLDY    39  19  44 N6        30.30S WCI  35

......IOWA............

CITY           SKY/WX    TMP DP  RH WIND       PRES   REMARKS
DES MOINES     CLEAR     16   7  67 NW9       30.18S WCI   4
QUAD CITIES    CLEAR     13   3  64 NW12G21   30.08S WCI  -1

......ILLINOIS........

CITY           SKY/WX    TMP DP  RH WIND       PRES   REMARKS
QUINCY         PTCLDY    15   5  64 NW20      30.12R WCI  -2
CHICAGO        FLURRIES  14   9  80 NW13G22   29.94S WCI   0




USA.gov is the U.S. government's official web portal to all federal, state and local government web resources and services.